CW5834 Weather Reports


time (UTC)temp
C
wind
direction
speed
KPH
gust
KPH
rain 1hr
cm
rain 24hr
cm
rain mn
cm
humidity
%
barometer
mb
20260503200515 17 203 4.8 14.5 0.00 0.00 0.00 39 1019.0
20260503195536 17 225 3.2 11.3 0.00 0.00 0.00 38 1019.1
20260503194516 17 203 4.8 14.5 0.00 0.00 0.00 40 1019.2
20260503193515 16 180 1.6 4.8 0.00 0.00 0.00 45 1019.4
20260503192516 16 225 6.4 12.9 0.00 0.00 0.00 41 1019.5
20260503191516 16 225 3.2 9.7 0.00 0.00 0.00 39 1019.6
20260503190515 16 225 8.0 14.5 0.00 0.00 0.00 42 1019.8
20260503185515 17 315 3.2 9.7 0.00 0.00 0.00 40 1019.9
20260503184516 16 180 4.8 11.3 0.00 0.00 0.00 42 1019.9
20260503183515 16 203 3.2 8.0 0.00 0.00 0.00 45 1020.1
20260503182516 16 225 4.8 11.3 0.00 0.00 0.00 41 1020.3
20260503181515 16 180 4.8 11.3 0.00 0.00 0.00 42 1020.4
20260503180515 15 225 4.8 9.7 0.00 0.00 0.00 44 1020.6
20260503175515 15 203 4.8 11.3 0.00 0.00 0.00 44 1020.6
20260503174516 15 315 4.8 11.3 0.00 0.00 0.00 39 1020.7
20260503173515 15 338 3.2 8.0 0.00 0.00 0.00 42 1020.8
20260503172516 15 225 3.2 8.0 0.00 0.00 0.00 41 1020.7
20260503171536 15 225 3.2 11.3 0.00 0.00 0.00 47 1021.0
20260503170515 15 158 1.6 6.4 0.00 0.00 0.00 43 1021.2
20260503150517 12 135 1.6 6.4 0.00 0.00 0.00 45 1022.0
20260503130517 10 113 1.6 3.2 0.00 0.00 0.00 62 1022.0
20260503110537 1 0.0 0.0 0.00 0.00 0.00 91 1020.3
20260503081516 3 0.0 3.2 0.00 0.00 0.00 88 1019.2
20260503080516 3 0.0 3.2 0.00 0.00 0.00 88 1019.0
20260503072516 3 0.0 1.6 0.00 0.00 0.00 85 1018.7
20260503071556 4 0.0 3.2 0.00 0.00 0.00 85 1018.4
20260503070536 4 0.0 3.2 0.00 0.00 0.00 85 1018.6
20260503054516 5 0.0 3.2 0.00 0.00 0.00 83 1018.5
20260503053516 5 0.0 0.0 0.00 0.00 0.00 83 1018.5
20260503052516 5 0.0 3.2 0.00 0.00 0.00 83 1018.5
20260503051516 5 0.0 3.2 0.00 0.00 0.00 82 1018.4
20260503050516 5 0.0 3.2 0.00 0.00 0.00 82 1018.3
20260503045516 6 0.0 3.2 0.00 0.00 0.00 83 1018.1
20260503044521 6 0.0 1.6 0.00 0.00 0.00 82 1018.3
20260503043516 6 0.0 3.2 0.00 0.00 0.00 82 1018.0
20260503042516 6 0.0 3.2 0.00 0.00 0.00 80 1018.2
20260503041515 6 180 1.6 3.2 0.00 0.00 0.00 80 1018.3
20260503040516 6 0.0 1.6 0.00 0.00 0.00 80 1018.0
20260503035537 6 0.0 1.6 0.00 0.00 0.00 79 1017.9
20260503034517 6 0.0 1.6 0.00 0.00 0.00 79 1017.9
20260503033537 6 0.0 3.2 0.00 0.00 0.00 80 1017.8
20260503032517 6 0.0 3.2 0.00 0.00 0.00 79 1017.9
20260503031537 6 0.0 1.6 0.00 0.00 0.00 77 1017.7
20260503030516 6 0.0 0.0 0.00 0.00 0.00 78 1017.7
20260503025516 6 0.0 3.2 0.00 0.00 0.00 78 1017.7
20260503024517 6 0.0 3.2 0.00 0.00 0.00 78 1017.7
20260503023516 6 0.0 3.2 0.00 0.00 0.00 76 1017.6
20260503022516 6 0.0 1.6 0.00 0.00 0.00 75 1017.4
20260503021517 6 0.0 1.6 0.00 0.00 0.00 74 1017.3
20260503020516 7 0.0 0.0 0.00 0.00 0.00 74 1017.3
20260503015516 7 0.0 1.6 0.00 0.00 0.00 74 1017.1
20260503014517 7 0.0 3.2 0.00 0.00 0.00 71 1017.0
20260503013536 7 0.0 3.2 0.00 0.00 0.00 70 1016.8
20260503012526 8 0.0 3.2 0.00 0.00 0.00 69 1016.8
20260503011556 8 0.0 3.2 0.00 0.00 0.00 68 1016.7
20260503010516 8 315 1.6 1.6 0.00 0.00 0.00 66 1016.6
20260503005516 9 0.0 3.2 0.00 0.00 0.00 63 1016.3
20260503004516 10 0.0 3.2 0.00 0.00 0.00 60 1016.2
20260503003516 10 23 1.6 3.2 0.00 0.00 0.00 56 1016.1
20260503002516 11 45 1.6 4.8 0.00 0.00 0.00 58 1015.9
20260503001516 11 338 1.6 4.8 0.00 0.00 0.00 55 1015.8
20260503000516 11 315 1.6 3.2 0.00 0.00 0.00 54 1015.9
20260502235516 12 315 3.2 4.8 0.00 0.00 0.00 51 1015.6
20260502234516 12 0 1.6 3.2 0.00 0.00 0.00 50 1015.5
20260502233516 12 315 4.8 12.9 0.00 0.00 0.00 48 1015.5
20260502232516 13 315 8.0 12.9 0.00 0.00 0.00 46 1015.6
20260502231516 13 338 4.8 14.5 0.00 0.00 0.00 46 1015.7
20260502230516 13 315 4.8 11.3 0.00 0.00 0.00 46 1015.5
20260502225516 13 338 6.4 12.9 0.00 0.00 0.00 46 1015.6
20260502224516 13 23 3.2 6.4 0.00 0.00 0.00 46 1015.5
20260502223516 13 315 3.2 12.9 0.00 0.00 0.00 47 1015.7
20260502222516 14 293 8.0 19.3 0.00 0.00 0.00 43 1015.4
20260502221536 14 293 4.8 16.1 0.00 0.00 0.00 42 1015.2
20260502220536 15 315 4.8 14.5 0.00 0.00 0.00 41 1014.9
20260502215516 15 315 8.0 17.7 0.00 0.00 0.00 40 1015.1
20260502214524 15 0 3.2 6.4 0.00 0.00 0.00 41 1014.8
20260502213516 15 338 6.4 12.9 0.00 0.00 0.00 43 1015.1
20260502212516 15 315 4.8 12.9 0.00 0.00 0.00 42 1014.8
20260502211516 15 23 4.8 16.1 0.00 0.00 0.00 41 1014.8
20260502210516 16 315 4.8 14.5 0.00 0.00 0.00 41 1014.6
20260502205516 15 338 8.0 16.1 0.00 0.00 0.00 39 1014.7
20260502204536 15 45 3.2 11.3 0.00 0.00 0.00 41 1014.6
20260502203516 15 338 4.8 9.7 0.00 0.00 0.00 43 1014.7
20260502202516 15 315 6.4 16.1 0.00 0.00 0.00 40 1014.8
20260502201516 16 45 6.4 19.3 0.00 0.00 0.00 41 1015.0